Weather History for KRAL - June, 2014

Change the Weather History Date:

Monday, June 23, 2014

  Actual Average Record
Temperature  
Mean Temperature 74 °F 74 °F  
Max Temperature 88 °F 87 °F 106 °F (1925)
Min Temperature 60 °F 61 °F 46 °F (1916)
Degree Days  
Heating Degree Days 0 0  
Month to date heating degree days 0 0  
Since 1 June heating degree days 0 0  
Since 1 July heating degree days 803 1444  
Cooling Degree Days 9 9  
Month to date cooling degree days 209 152  
Year to date cooling degree days 587 329  
Since 1 June cooling degree days 209 152  
Growing Degree Days 22 (Base 50)    
Moisture  
Dew Point 56 °F    
Average Humidity 62    
Maximum Humidity 90    
Minimum Humidity 34    
Precipitation  
Precipitation 0.00 in 0.00 in 0.00 in (2015)
Month to date precipitation 0.00 0.08  
Year to date precipitation 1.72 9.17  
Since 1 July precipitation 2.87  
Snow  
Snow 0.00 in - - ()
Month to date snowfall 0.0  
Year to date snowfall 0.0  
Since 1 June snowfall  
Since 1 July snowfall 0.0  
Snow Depth 0.00 in    
Sea Level Pressure  
Sea Level Pressure 29.88 in    
Wind  
Wind Speed 5 mph (West)    
Max Wind Speed 17 mph    
Max Gust Speed 25 mph    
Visibility 9 miles    
Events      
T = Trace of Precipitation, MM = Missing Value Source: NWS Daily Summary

Daily Weather History Graph

Daily Weather History Graph

Search for Another Location

Airport or City:

Trip Planner

Search our weather history database for the weather conditions in past years. The results will help you decide how hot, cold, wet, or windy it might be!

Date:

Astronomy

Jun. 23, 2014 Rise Set
Actual Time 5:39 AM PDT 8:04 PM PDT
Civil Twilight 5:10 AM PDT 8:33 PM PDT
Nautical Twilight 4:34 AM PDT 9:09 PM PDT
Astronomical Twilight 3:55 AM PDT 9:49 PM PDT
Moon 3:01 AM PDT (6/23) 4:56 PM PDT (6/23)
Length of Visible Light 15h 23m
Length of Day
14h 24m
Waning Crescent, 12% of the Moon is Illuminated
Jun 23
Waning Crescent
Jun 27
New
Jul 5
First Quarter
Jul 12
Full
Jul 18
Last Quarter

Hourly Weather History & Observations

Time (PDT) Temp. Heat Index Dew Point Humidity Pressure Visibility Wind Dir Wind Speed Gust Speed Precip Events Conditions
12:53 AM 63.0 °F - 55.9 °F 78% 29.86 in 10.0 mi Calm Calm - N/A   Clear
1:53 AM 63.0 °F - 55.9 °F 78% 29.86 in 10.0 mi Calm Calm - N/A   Clear
2:53 AM 62.1 °F - 55.9 °F 80% 29.86 in 10.0 mi West 3.5 mph - N/A   Clear
3:53 AM 61.0 °F - 55.9 °F 83% 29.85 in 10.0 mi Calm Calm - N/A   Clear
4:53 AM 61.0 °F - 55.9 °F 83% 29.86 in 9.0 mi Calm Calm - N/A   Clear
5:53 AM 60.1 °F - 55.9 °F 86% 29.87 in 8.0 mi Calm Calm - N/A   Clear
6:46 AM 61.0 °F - 55.9 °F 83% 29.92 in 8.0 mi West 3.5 mph - N/A   Mostly Cloudy
6:53 AM 61.0 °F - 57.0 °F 87% 29.89 in 8.0 mi West 3.5 mph - N/A   Mostly Cloudy
7:53 AM 62.1 °F - 57.0 °F 84% 29.91 in 6.0 mi Calm Calm - N/A   Haze
8:30 AM 64.0 °F - 57.9 °F 80% 29.95 in 6.0 mi Calm Calm - N/A   Haze
8:53 AM 66.0 °F - 57.9 °F 75% 29.92 in 6.0 mi Variable 4.6 mph - N/A   Haze
9:53 AM 69.1 °F - 57.9 °F 68% 29.91 in 7.0 mi SSW 3.5 mph - N/A   Clear
10:53 AM 73.9 °F - 57.0 °F 55% 29.90 in 8.0 mi Variable 3.5 mph - N/A   Clear
11:53 AM 79.0 °F - 57.0 °F 47% 29.89 in 10.0 mi Variable 5.8 mph - N/A   Clear
12:53 PM 82.9 °F 81.9 °F 54.0 °F 37% 29.87 in 10.0 mi NW 6.9 mph - N/A   Clear
3:53 PM 84.9 °F 83.7 °F 55.9 °F 37% 29.83 in 10.0 mi West 13.8 mph 19.6 mph N/A   Clear
4:53 PM 81.0 °F 81.0 °F 57.0 °F 44% 29.84 in 10.0 mi West 11.5 mph - N/A   Clear
5:53 PM 79.0 °F - 55.9 °F 45% 29.84 in 10.0 mi West 12.7 mph - N/A   Clear
6:53 PM 77.0 °F - 55.9 °F 48% 29.85 in 10.0 mi West 11.5 mph - N/A   Clear
7:53 PM 73.9 °F - 55.9 °F 53% 29.86 in 10.0 mi West 6.9 mph - N/A   Clear
8:53 PM 72.0 °F - 57.0 °F 59% 29.88 in 10.0 mi West 5.8 mph - N/A   Clear
9:53 PM 69.1 °F - 57.0 °F 65% 29.90 in 10.0 mi West 4.6 mph - N/A   Clear
10:53 PM 66.9 °F - 57.0 °F 70% 29.91 in 10.0 mi West 5.8 mph - N/A   Clear
11:53 PM 66.0 °F - 57.0 °F 73% 29.90 in 10.0 mi West 5.8 mph - N/A   Clear